Location: Nairn
(57.5833°N, 3.8667°W)
Time: 10:23:26
(UTC+00:00)

N. Korean satellite - Pass Details

Date: 30 October 2020
Orbit: 452 x 504 km, 97.2° (Epoch: 25 November)

Event Time Altitude Azimuth Distance (km) Brightness Sun altitude
Rises 05:35:47 0° 19° (NNE) 2,490 10.4 -14.8°
Reaches altitude 10° 05:37:55 10° 26° (NNE) 1,607 9.5 -14.6°
Maximum altitude 05:41:12 41° 98° (E) 679 7.9 -14.1°
Drops below altitude 10° 05:44:26 10° 171° (S) 1,591 9.3 -13.7°
Sets 05:46:32 0° 178° (S) 2,461 10.2 -13.4°
